CDT,Max TemperatureF,Mean TemperatureF,Min TemperatureF,Max Dew PointF,MeanDew PointF,Min DewpointF,Max Humidity, Mean Humidity, Min Humidity, Max Sea Level PressureIn, Mean Sea Level PressureIn, Min Sea Level PressureIn, Max VisibilityMiles, Mean VisibilityMiles, Min VisibilityMiles, Max Wind SpeedMPH, Mean Wind SpeedMPH, Max Gust SpeedMPH,PrecipitationIn, CloudCover, Events, WindDirDegrees
2011-10-1,76,61,46,48,43,36,86,55,23,30.14,30.06,29.99,10,10,10,20,8,25,0.00,0,,344
2011-10-2,76,61,45,45,42,37,86,56,25,30.19,30.14,30.09,10,10,10,15,6,29,0.00,0,,333
2011-10-3,81,61,40,48,42,36,96,59,21,30.25,30.19,30.14,10,10,10,10,2,16,0.00,0,,358
2011-10-4,82,64,45,52,47,42,93,60,26,30.27,30.21,30.16,10,10,10,12,2,16,0.00,0,,23
2011-10-5,87,70,53,55,52,46,93,60,27,30.25,30.18,30.12,10,10,10,10,2,14,0.00,1,,54
2011-10-6,85,70,54,57,55,53,100,69,37,30.25,30.19,30.15,10,10,6,16,5,21,0.00,3,,72
2011-10-7,83,70,57,56,52,50,80,57,33,30.32,30.25,30.20,10,10,10,20,9,23,0.00,0,,70
2011-10-8,86,75,63,60,56,52,78,59,40,30.31,30.24,30.17,10,10,10,21,12,28,0.00,1,,71
2011-10-9,76,70,64,62,56,48,81,67,52,30.22,30.15,30.07,10,10,10,24,12,30,0.02,5,Rain,58
2011-10-10,75,70,65,65,63,60,93,83,73,30.06,29.97,29.90,10,7,1,25,11,35,0.53,7,Rain,25
2011-10-11,70,67,64,64,63,61,87,83,78,29.90,29.87,29.84,10,8,2,16,8,22,T,8,Rain,33
2011-10-12,71,67,63,65,63,61,93,83,73,29.89,29.84,29.79,10,8,2,7,2,22,T,8,Rain,26
2011-10-13,78,69,60,66,62,57,93,74,54,29.83,29.75,29.69,10,8,1,17,7,22,0.41,5,Rain-Thunderstorm,247
2011-10-14,83,68,53,57,51,42,93,59,24,30.03,29.93,29.84,10,10,8,12,4,14,0.00,0,,261
2011-10-15,86,68,50,56,51,46,93,59,25,30.13,30.08,30.03,10,10,10,12,3,16,0.00,1,,291
2011-10-16,88,69,50,57,53,48,100,63,26,30.17,30.10,30.03,10,10,10,8,1,22,0.00,0,,40
2011-10-17,89,70,51,57,53,46,100,62,24,30.03,29.96,29.83,10,10,4,6,1,22,0.00,0,Fog,335
2011-10-18,86,71,55,70,62,52,93,74,55,29.83,29.67,29.55,10,9,2,22,5,29,0.79,4,Rain,60
2011-10-19,63,57,50,57,43,37,100,72,43,29.93,29.72,29.61,10,9,4,23,14,30,T,7,,288
2011-10-20,63,52,41,40,38,36,89,63,36,30.12,30.03,29.93,10,10,10,17,7,25,0.00,1,,257
2011-10-21,70,53,35,43,37,33,93,60,26,30.23,30.17,30.12,10,10,10,14,4,20,0.00,0,,313
2011-10-22,72,54,35,44,38,34,100,64,27,30.21,30.14,30.09,10,9,1,13,3,26,0.00,1,,5
2011-10-23,75,57,38,49,43,37,96,63,29,30.15,30.09,30.05,10,10,10,8,2,17,T,3,,79
2011-10-24,80,65,50,54,51,48,89,62,35,30.21,30.14,30.09,10,10,10,15,2,17,T,3,Rain,10
2011-10-25,82,63,44,53,47,43,100,64,28,30.25,30.19,30.12,10,8,2,8,2,20,0.00,0,Fog,150
2011-10-26,81,63,45,54,50,45,93,64,35,30.15,30.06,29.97,10,10,10,13,3,17,0.00,1,,175
2011-10-27,82,67,52,58,53,48,93,63,33,29.98,29.93,29.88,10,9,4,12,3,14,0.00,2,Fog,223
2011-10-28,77,64,50,61,54,45,100,80,60,30.05,29.95,29.89,10,6,0,18,7,24,T,5,Fog,310
2011-10-29,67,55,43,44,35,28,77,51,24,30.19,30.12,30.06,10,10,10,23,9,31,0.00,2,,354
2011-10-30,67,50,33,38,34,28,85,56,26,30.29,30.23,30.19,10,10,10,16,3,21,0.00,3,,69
2011-10-31,72,54,35,44,37,32,92,59,25,30.24,30.20,30.14,10,10,8,9,1,17,0.00,0,Fog,354